TimeEDT,TemperatureF,Dew PointF,Humidity,Sea Level PressureIn,VisibilityMPH,Wind Direction,Wind SpeedMPH,Gust SpeedMPH,PrecipitationIn,Events,Conditions,WindDirDegrees,DateUTC
12:56 AM,46.9,43.0,86,30.16,10.0,West,3.5,-,N/A,,Partly Cloudy,270,2012-10-10 04:56:00
1:29 AM,46.4,44.6,93,30.12,10.0,Calm,Calm,-,N/A,,Mostly Cloudy,0,2012-10-10 05:29:00
1:37 AM,46.4,44.6,93,30.11,10.0,Calm,Calm,-,N/A,,Mostly Cloudy,0,2012-10-10 05:37:00
1:56 AM,46.9,45.0,93,30.16,10.0,Calm,Calm,-,N/A,,Overcast,0,2012-10-10 05:56:00
2:37 AM,48.2,44.6,87,30.10,10.0,Calm,Calm,-,N/A,,Overcast,0,2012-10-10 06:37:00
2:56 AM,48.0,45.0,89,30.14,4.0,North,3.5,-,0.00,Rain,Light Rain,360,2012-10-10 06:56:00
3:29 AM,48.2,46.4,93,30.10,4.0,Calm,Calm,-,0.00,,Overcast,0,2012-10-10 07:29:00
3:47 AM,48.2,46.4,93,30.08,3.0,Calm,Calm,-,0.01,Rain,Light Rain,0,2012-10-10 07:47:00
3:56 AM,48.9,46.9,93,30.12,5.0,Calm,Calm,-,0.01,,Overcast,0,2012-10-10 07:56:00
4:03 AM,48.2,46.4,93,30.08,5.0,Calm,Calm,-,N/A,,Overcast,0,2012-10-10 08:03:00
4:28 AM,48.2,46.4,93,30.08,10.0,Calm,Calm,-,N/A,,Overcast,0,2012-10-10 08:28:00
4:56 AM,48.9,46.9,93,30.11,7.0,Calm,Calm,-,N/A,,Overcast,0,2012-10-10 08:56:00
5:31 AM,48.2,48.2,100,30.07,2.5,Calm,Calm,-,N/A,,Overcast,0,2012-10-10 09:31:00
5:53 AM,48.2,46.4,93,30.06,4.0,NW,3.5,-,N/A,,Overcast,320,2012-10-10 09:53:00
5:56 AM,48.9,48.0,97,30.10,4.0,NNW,3.5,-,N/A,,Overcast,330,2012-10-10 09:56:00
6:20 AM,48.2,48.2,100,30.05,2.5,North,3.5,-,N/A,,Overcast,360,2012-10-10 10:20:00
6:30 AM,48.2,48.2,100,30.05,3.0,NNE,4.6,-,N/A,,Overcast,20,2012-10-10 10:30:00
6:56 AM,48.9,48.0,97,30.09,3.0,Calm,Calm,-,N/A,,Overcast,0,2012-10-10 10:56:00
7:10 AM,50.0,48.2,94,30.04,2.0,Calm,Calm,-,0.01,,Overcast,0,2012-10-10 11:10:00
7:56 AM,50.0,48.9,96,30.09,2.0,Calm,Calm,-,0.01,,Overcast,0,2012-10-10 11:56:00
8:04 AM,50.0,48.2,94,30.04,1.5,North,3.5,-,N/A,,Overcast,360,2012-10-10 12:04:00
8:56 AM,51.1,50.0,96,30.07,1.5,Calm,Calm,-,0.00,Rain,Light Rain,0,2012-10-10 12:56:00
9:03 AM,51.8,50.0,94,30.02,2.5,NE,3.5,-,0.00,,Overcast,40,2012-10-10 13:03:00
9:24 AM,51.8,51.8,100,30.01,2.0,NE,3.5,-,0.00,,Overcast,40,2012-10-10 13:24:00
9:56 AM,52.0,51.1,97,30.04,2.0,NE,3.5,-,0.00,,Overcast,40,2012-10-10 13:56:00
10:28 AM,53.6,51.8,94,29.98,1.5,North,4.6,-,N/A,,Overcast,10,2012-10-10 14:28:00
10:56 AM,54.0,53.1,97,30.01,2.0,Calm,Calm,-,0.04,Rain,Light Rain,0,2012-10-10 14:56:00
11:07 AM,53.6,53.6,100,29.96,3.0,NE,3.5,-,0.01,Rain,Light Rain,50,2012-10-10 15:07:00
11:14 AM,55.4,53.6,94,29.96,1.8,NE,11.5,27.6,0.01,Rain,Light Rain,50,2012-10-10 15:14:00
11:47 AM,57.2,55.4,94,29.93,3.0,East,6.9,-,0.01,,Overcast,80,2012-10-10 15:47:00
11:56 AM,57.0,55.0,93,29.96,3.0,East,10.4,-,0.01,,Light Drizzle,80,2012-10-10 15:56:00
12:56 PM,57.9,55.9,93,29.92,3.0,East,11.5,-,0.01,,Light Drizzle,100,2012-10-10 16:56:00
1:02 PM,57.2,55.4,94,29.88,1.8,East,9.2,-,0.00,,Light Drizzle,90,2012-10-10 17:02:00
1:25 PM,57.2,55.4,94,29.86,2.5,East,9.2,-,0.02,,Light Drizzle,100,2012-10-10 17:25:00
1:56 PM,57.9,55.9,93,29.87,1.5,ESE,11.5,-,0.02,,Light Drizzle,110,2012-10-10 17:56:00
2:56 PM,59.0,57.0,93,29.83,1.5,ESE,11.5,-,0.02,,Overcast,110,2012-10-10 18:56:00
3:03 PM,59.0,57.2,94,29.79,3.0,ESE,9.2,-,0.00,Rain,Light Rain,110,2012-10-10 19:03:00
3:10 PM,59.0,57.2,94,29.78,2.5,ESE,10.4,-,0.00,Rain,Light Rain,120,2012-10-10 19:10:00
3:17 PM,59.0,57.2,94,29.78,6.0,ESE,8.1,-,0.00,,Overcast,110,2012-10-10 19:17:00
3:32 PM,59.0,57.2,94,29.77,2.0,ESE,8.1,-,0.00,Rain,Light Rain,120,2012-10-10 19:32:00
3:51 PM,59.0,57.2,94,29.75,3.0,ESE,6.9,-,0.01,Rain,Light Rain,120,2012-10-10 19:51:00
3:56 PM,60.1,57.9,93,29.79,3.0,ESE,5.8,-,0.01,Rain,Light Rain,120,2012-10-10 19:56:00
4:26 PM,60.8,59.0,94,29.74,1.8,SE,3.5,29.9,0.01,Rain,Light Rain,130,2012-10-10 20:26:00
4:56 PM,60.1,59.0,96,29.78,1.0,SSW,4.6,-,0.04,Rain,Light Rain,210,2012-10-10 20:56:00
5:24 PM,60.8,59.0,94,29.73,2.5,Calm,Calm,-,0.03,Rain,Light Rain,0,2012-10-10 21:24:00
5:43 PM,60.8,59.0,94,29.72,10.0,Calm,Calm,-,0.03,,Unknown,0,2012-10-10 21:43:00
5:56 PM,60.1,59.0,96,29.76,10.0,West,3.5,-,0.03,,Unknown,270,2012-10-10 21:56:00
6:03 PM,60.8,59.0,94,29.72,10.0,WSW,3.5,-,N/A,,Overcast,250,2012-10-10 22:03:00
6:56 PM,59.0,57.9,96,29.76,10.0,WSW,3.5,-,N/A,,Overcast,240,2012-10-10 22:56:00
7:06 PM,59.0,57.2,94,29.72,1.0,WSW,3.5,-,N/A,,Overcast,240,2012-10-10 23:06:00
7:41 PM,59.0,57.2,94,29.72,1.0,WSW,8.1,-,N/A,,Mostly Cloudy,250,2012-10-10 23:41:00
7:56 PM,59.0,55.9,90,29.75,1.0,WSW,4.6,-,N/A,,Mostly Cloudy,250,2012-10-10 23:56:00
8:03 PM,57.2,55.4,94,29.72,10.0,WSW,4.6,-,N/A,,Mostly Cloudy,240,2012-10-11 00:03:00
8:56 PM,55.9,54.0,93,29.77,10.0,WSW,6.9,-,N/A,,Clear,240,2012-10-11 00:56:00
9:56 PM,54.0,52.0,93,29.78,10.0,SW,5.8,-,N/A,,Clear,230,2012-10-11 01:56:00
10:56 PM,53.1,51.1,93,29.81,10.0,WSW,5.8,-,N/A,,Partly Cloudy,240,2012-10-11 02:56:00
11:56 PM,53.1,46.9,80,29.83,10.0,WSW,9.2,-,0.00,,Mostly Cloudy,250,2012-10-11 03:56:00